Location: McFarlands Corners
(41.4117°N, 81.3382°W)
Time: 04:46:02
(UTC+00:00)

A-11 Canister half - Pass Details

Date: 18 February 2026
Orbit: 1524 x 1683 km, 47.3° (Epoch: 14 March)

Event Time Altitude Azimuth Distance (km) Brightness Sun altitude
Rises 01:25:02 0° 284° (WNW) 4,684 12.8 -27.4°
Reaches altitude 10° 01:28:09 10° 288° (WNW) 3,695 11.9 -28.0°
Maximum altitude 01:37:22 64° 9° (N) 1,671 9.0 -29.7°
Enters shadow 01:39:34 52° 59° (ENE) 1,851 9.0 -30.1°
